M I D A S
Marine Information and Data Acquisition System
Tripno 484 of the Zeeleeuw from 2003-05-05 06:53:56 to 2003-05-05 15:13:46
Back to CruiseResearch ActivitiesStationsMapUnderway DataData graphs

EquipmentUnitsComments
TimeDGPSUTC
LatitudeDGPSDM.mWGS84
LongitudeDGPSDM.mWGS84
SpeedMeteo Stationm/sRelative wind speed
DirectionMeteo StationdegRelative wind direction
TemperatureMeteo Stationdeg CelciusAir temperature
PressureMeteo StationPaAtmospheric pressure
HumidityMeteo Station%Relative humidity
Missing or incorrect values are displayed as -999
Metereological data collected by the RV Zeeleeuw from 2003-05-05 06:53:56 to 2003-05-05 15:13:46
                                                                                    Next 1000 lines
Time Latitude Longitude Speed Direction Temperature Pressure Humidity
2003-05-05 06:54:02 51°13.6 2°56.1 2.6 319 13.3 101090 87
2003-05-05 06:54:08 51°13.6 2°56.1 2.6 325 13.3 101090 87
2003-05-05 06:54:14 51°13.6 2°56.1 2.3 315 13.4 101080 87
2003-05-05 06:54:18 51°13.6 2°56.1 2.7 332 13.4 101080 87
2003-05-05 06:54:22 51°13.6 2°56.1 2.9 328 13.4 101090 87
2003-05-05 06:54:28 51°13.6 2°56.1 2.5 300 13.4 101090 87
2003-05-05 06:54:34 51°13.6 2°56.1 3 307 13.3 101090 87
2003-05-05 06:54:38 51°13.6 2°56.1 3.4 288 13.3 101090 87
2003-05-05 06:54:42 51°13.6 2°56.1 3.9 292 13.4 101090 87
2003-05-05 06:54:48 51°13.6 2°56.1 3.5 279 13.4 101090 87
2003-05-05 06:54:54 51°13.6 2°56.1 4.1 296 13.4 101090 87
2003-05-05 06:54:58 51°13.6 2°56.1 4 307 13.4 101090 87
2003-05-05 06:55:02 51°13.6 2°56.1 4 296 13.4 101090 87
2003-05-05 06:55:08 51°13.6 2°56.1 3.6 268 13.4 101090 87
2003-05-05 06:55:12 51°13.6 2°56.1 3.4 256 13.4 101090 87
2003-05-05 06:55:18 51°13.6 2°56.1 3.6 248 13.4 101090 87
2003-05-05 06:55:22 51°13.6 2°56.09 3.4 249 13.4 101090 87
2003-05-05 06:55:30 51°13.6 2°56.09 3.4 237 13.4 101090 87
2003-05-05 06:55:34 51°13.6 2°56.08 2.6 246 13.3 101090 86
2003-05-05 06:55:40 51°13.61 2°56.07 2.7 270 13.3 101090 86
2003-05-05 06:55:46 51°13.61 2°56.07 3 258 13.3 101090 86
2003-05-05 06:55:52 51°13.61 2°56.06 2.8 243 13.3 101090 86
2003-05-05 06:55:58 51°13.61 2°56.05 3.7 237 13.3 101100 86
2003-05-05 06:56:02 51°13.61 2°56.05 3.4 227 13.3 101100 86
2003-05-05 06:56:08 51°13.62 2°56.04 3.9 317 13.3 101100 87
2003-05-05 06:56:14 51°13.62 2°56.03 2.9 241 13.3 101100 87
2003-05-05 06:56:18 51°13.62 2°56.02 3.4 251 13.3 101100 87
2003-05-05 06:56:22 51°13.62 2°56.01 3.2 242 13.3 101100 87
2003-05-05 06:56:28 51°13.62 2°56 3.1 243 13.3 101090 87
2003-05-05 06:56:34 51°13.63 2°55.99 2.5 243 13.3 101090 87
2003-05-05 06:56:38 51°13.63 2°55.99 2.3 252 13.4 101100 87
2003-05-05 06:56:44 51°13.63 2°55.97 3.1 250 13.4 101100 87
2003-05-05 06:56:48 51°13.63 2°55.97 2.5 251 13.3 101100 87
2003-05-05 06:56:54 51°13.64 2°55.96 1.9 235 13.3 101100 87
2003-05-05 06:56:58 51°13.64 2°55.95 1.7 249 13.3 101100 87
2003-05-05 06:57:04 51°13.64 2°55.94 1.3 242 13.3 101100 87
2003-05-05 06:57:08 51°13.64 2°55.93 1.3 237 13.3 101100 87
2003-05-05 06:57:14 51°13.65 2°55.92 1.5 212 13.3 101100 87
2003-05-05 06:57:18 51°13.65 2°55.91 1.5 202 13.3 101100 87
2003-05-05 06:57:24 51°13.65 2°55.9 2.3 214 13.3 101100 87
2003-05-05 06:57:28 51°13.66 2°55.89 2.7 224 13.3 101100 87
2003-05-05 06:57:34 51°13.66 2°55.88 2.6 223 13.3 101100 87
2003-05-05 06:57:38 51°13.66 2°55.87 3.2 222 13.4 101100 87
2003-05-05 06:57:44 51°13.67 2°55.86 4.6 218 13.4 101100 87
2003-05-05 06:57:48 51°13.67 2°55.85 3.7 224 13.4 101100 87
2003-05-05 06:57:54 51°13.67 2°55.84 2 220 13.4 101100 87
2003-05-05 06:57:58 51°13.67 2°55.83 1.5 215 13.4 101100 87
2003-05-05 06:58:04 51°13.67 2°55.82 2 220 13.4 101100 87
2003-05-05 06:58:08 51°13.68 2°55.82 3.1 240 13.4 101100 87
2003-05-05 06:58:14 51°13.68 2°55.81 2.7 215 13.4 101100 87
2003-05-05 06:58:18 51°13.68 2°55.8 3 231 13.4 101100 87
2003-05-05 06:58:24 51°13.68 2°55.79 2.7 215 13.4 101100 87
2003-05-05 06:58:28 51°13.68 2°55.79 3.4 210 13.4 101110 87
2003-05-05 06:58:34 51°13.68 2°55.78 3.2 229 13.4 101110 87
2003-05-05 06:58:38 51°13.68 2°55.77 3.3 235 13.4 101100 87
2003-05-05 06:58:42 51°13.68 2°55.77 2.9 230 13.4 101100 87
2003-05-05 06:58:48 51°13.68 2°55.76 2.8 232 13.4 101100 87
2003-05-05 06:58:52 51°13.68 2°55.76 2.3 228 13.4 101100 87
2003-05-05 06:58:58 51°13.68 2°55.76 3.6 251 13.4 101100 87
2003-05-05 06:59:02 51°13.68 2°55.76 3.5 226 13.4 101100 87
2003-05-05 06:59:06 51°13.68 2°55.75 2.4 234 13.4 101100 87
2003-05-05 06:59:12 51°13.68 2°55.75 2.8 239 13.4 101100 87
2003-05-05 06:59:16 51°13.69 2°55.75 3 255 13.4 101100 87
2003-05-05 06:59:20 51°13.69 2°55.75 3 236 13.4 101100 87
2003-05-05 06:59:26 51°13.69 2°55.76 3.2 209 13.4 101100 87
2003-05-05 06:59:30 51°13.69 2°55.76 1.9 193 13.4 101100 87
2003-05-05 06:59:34 51°13.69 2°55.76 2.7 224 13.4 101100 87
2003-05-05 06:59:38 51°13.69 2°55.76 3.2 193 13.4 101100 87
2003-05-05 06:59:44 51°13.69 2°55.76 3.1 192 13.4 101100 87
2003-05-05 06:59:48 51°13.7 2°55.76 3 197 13.4 101100 87
2003-05-05 06:59:54 51°13.7 2°55.76 3.2 185 13.4 101110 87
2003-05-05 06:59:58 51°13.7 2°55.76 3.2 178 13.4 101110 87
2003-05-05 07:00:02 51°13.7 2°55.76 2.4 166 13.4 101110 87
2003-05-05 07:00:08 51°13.71 2°55.76 1.5 161 13.4 101110 87
2003-05-05 07:00:14 51°13.71 2°55.76 1.3 160 13.4 101110 87
2003-05-05 07:00:18 51°13.71 2°55.76 1.1 130 13.4 101110 87
2003-05-05 07:00:22 51°13.72 2°55.76 2.1 129 13.4 101110 87
2003-05-05 07:00:28 51°13.72 2°55.75 2.1 114 13.4 101110 87
2003-05-05 07:00:34 51°13.73 2°55.75 2.1 127 13.4 101110 87
2003-05-05 07:00:38 51°13.73 2°55.75 1.7 110 13.4 101110 87
2003-05-05 07:00:42 51°13.73 2°55.74 1.6 102 13.4 101110 87
2003-05-05 07:00:48 51°13.74 2°55.74 1.9 94 13.4 101110 87
2003-05-05 07:00:54 51°13.74 2°55.73 1.6 116 13.4 101110 87
2003-05-05 07:00:58 51°13.74 2°55.73 2.1 77 13.4 101110 87
2003-05-05 07:01:02 51°13.75 2°55.73 2.2 78 13.4 101110 87
2003-05-05 07:01:08 51°13.75 2°55.72 2.6 88 13.4 101110 87
2003-05-05 07:01:14 51°13.76 2°55.71 2.1 94 13.4 101110 87
2003-05-05 07:01:18 51°13.76 2°55.71 1.5 118 13.4 101110 87
2003-05-05 07:01:22 51°13.77 2°55.7 1.3 109 13.4 101110 87
2003-05-05 07:01:28 51°13.77 2°55.69 1.6 63 13.4 101110 87
2003-05-05 07:01:34 51°13.78 2°55.69 1.8 63 13.4 101110 87
2003-05-05 07:01:38 51°13.78 2°55.68 1.6 83 13.4 101110 87
2003-05-05 07:01:42 51°13.79 2°55.68 1.4 128 13.4 101110 87
2003-05-05 07:01:48 51°13.8 2°55.67 1.3 81 13.4 101110 87
2003-05-05 07:01:54 51°13.8 2°55.66 1.1 73 13.4 101120 87
2003-05-05 07:01:58 51°13.81 2°55.65 0.6 61 13.4 101120 87
2003-05-05 07:02:02 51°13.82 2°55.65 0.6 61 13.4 101110 87
2003-05-05 07:02:08 51°13.82 2°55.64 0.7 44 13.4 101110 87
2003-05-05 07:02:14 51°13.83 2°55.63 0.8 20 13.4 101110 87
2003-05-05 07:02:18 51°13.84 2°55.63 1.3 4 13.4 101110 87
2003-05-05 07:02:22 51°13.85 2°55.62 1.3 6 13.4 101110 87
2003-05-05 07:02:28 51°13.86 2°55.61 1.4 1 13.4 101110 87
2003-05-05 07:02:34 51°13.86 2°55.61 1.7 14 13.4 101110 87
2003-05-05 07:02:38 51°13.87 2°55.6 1 94 13.4 101110 87
2003-05-05 07:02:42 51°13.88 2°55.59 1.1 97 13.4 101110 87
2003-05-05 07:02:48 51°13.89 2°55.59 1.5 102 13.4 101110 87
2003-05-05 07:02:54 51°13.9 2°55.58 1.5 103 13.4 101120 87
2003-05-05 07:02:58 51°13.9 2°55.57 1.4 143 13.4 101120 87
2003-05-05 07:03:02 51°13.91 2°55.57 1.3 137 13.4 101110 87
2003-05-05 07:03:08 51°13.92 2°55.56 0.7 155 13.4 101110 87
2003-05-05 07:03:14 51°13.93 2°55.55 0.6 192 13.4 101110 87
2003-05-05 07:03:18 51°13.94 2°55.54 0.7 325 13.4 101110 87
2003-05-05 07:03:22 51°13.95 2°55.54 0.9 329 13.4 101110 87
2003-05-05 07:03:28 51°13.96 2°55.53 1.3 34 13.4 101110 87
2003-05-05 07:03:34 51°13.97 2°55.52 1.3 34 13.4 101110 87
2003-05-05 07:03:38 51°13.98 2°55.52 0.7 17 13.4 101110 87
2003-05-05 07:03:44 51°13.99 2°55.51 0.9 5 13.4 101110 87
2003-05-05 07:03:48 51°13.99 2°55.5 1.5   13.4 101110 87
2003-05-05 07:03:54 51°14.01 2°55.49 1.5   13.5 101120 87
2003-05-05 07:03:58 51°14.01 2°55.49 1.3   13.5 101120 87
2003-05-05 07:04:04 51°14.03 2°55.48 1.3   13.5 101120 87
2003-05-05 07:04:08 51°14.03 2°55.48 1.7 17 13.5 101120 87
2003-05-05 07:04:14 51°14.04 2°55.47 1.6 17 13.5 101110 87
2003-05-05 07:04:18 51°14.05 2°55.46 1.7 17 13.5 101110 87
2003-05-05 07:04:24 51°14.06 2°55.45 1.9 19 13.5 101120 87
2003-05-05 07:04:28 51°14.07 2°55.44 2.9 13 13.5 101120 87
2003-05-05 07:04:34 51°14.08 2°55.43 2.9 10 13.5 101120 87
2003-05-05 07:04:38 51°14.09 2°55.43 1.8 31 13.5 101120 87
2003-05-05 07:04:44 51°14.1 2°55.42 1.9 19 13.5 101120 87
2003-05-05 07:04:48 51°14.11 2°55.41 2.7 12 13.5 101120 87
2003-05-05 07:04:54 51°14.13 2°55.4 2.5 11 13.5 101120 87
2003-05-05 07:04:58 51°14.14 2°55.4 1.8 17 13.5 101120 87
2003-05-05 07:05:04 51°14.15 2°55.39 2.3 23 13.5 101120 87
2003-05-05 07:05:10 51°14.16 2°55.37 3 16 13.5 101120 87
2003-05-05 07:05:14 51°14.17 2°55.37 2.8 23 13.5 101120 87
2003-05-05 07:05:18 51°14.18 2°55.36 3.1 318 13.5 101120 87
2003-05-05 07:05:24 51°14.19 2°55.35 2.9 133 13.5 101120 87
2003-05-05 07:05:30 51°14.21 2°55.33 3.5 39 13.5 101120 87
2003-05-05 07:05:34 51°14.22 2°55.32 3.8 44 13.5 101120 87
2003-05-05 07:05:38 51°14.22 2°55.31 4.2 26 13.5 101120 87
2003-05-05 07:05:44 51°14.24 2°55.3 4.7 12 13.5 101120 87
2003-05-05 07:05:50 51°14.25 2°55.28 5 17 13.5 101120 87
2003-05-05 07:05:54 51°14.26 2°55.27 5.6 23 13.5 101120 87
2003-05-05 07:06:00 51°14.27 2°55.25 4.9 19 13.5 101120 87
2003-05-05 07:06:04 51°14.27 2°55.24 4.7 19 13.5 101120 87
2003-05-05 07:06:10 51°14.29 2°55.22 5.2 25 13.5 101120 87
2003-05-05 07:06:14 51°14.29 2°55.21 4.8 33 13.5 101120 87
2003-05-05 07:06:18 51°14.3 2°55.2 4.8 13 13.5 101120 87
2003-05-05 07:06:22 51°14.31 2°55.18 4.2 25 13.5 101120 87
2003-05-05 07:06:28 51°14.32 2°55.16 5.2 19 13.5 101120 87
2003-05-05 07:06:34 51°14.33 2°55.14 4.9 26 13.5 101120 87
2003-05-05 07:06:38 51°14.33 2°55.13 3.8 134 13.5 101120 87
2003-05-05 07:06:42 51°14.34 2°55.12 4.1 23 13.5 101120 87
2003-05-05 07:06:48 51°14.35 2°55.1 3.8 24 13.5 101120 87
2003-05-05 07:06:54 51°14.36 2°55.08 4.3 8 13.5 101120 87
2003-05-05 07:06:58 51°14.37 2°55.06 6.5 31 13.5 101120 87
2003-05-05 07:07:02 51°14.38 2°55.05 6.8 45 13.5 101120 87
2003-05-05 07:07:08 51°14.39 2°55.03 5.3 50 13.5 101120 87
2003-05-05 07:07:14 51°14.41 2°55.01 4.9 47 13.5 101120 87
2003-05-05 07:07:18 51°14.42 2°55 3.9 54 13.5 101120 87
2003-05-05 07:07:22 51°14.43 2°54.98 3.8 54 13.5 101130 87
2003-05-05 07:07:28 51°14.44 2°54.97 4.9 47 13.5 101130 87
2003-05-05 07:07:34 51°14.46 2°54.95 5 49 13.5 101130 86
2003-05-05 07:07:38 51°14.47 2°54.94 4.1 47 13.5 101130 86
2003-05-05 07:07:42 51°14.48 2°54.92 4 41 13.5 101130 86
2003-05-05 07:07:48 51°14.5 2°54.9 4.7 41 13.5 101130 86
2003-05-05 07:07:54 51°14.51 2°54.88 4.5 37 13.5 101130 86
2003-05-05 07:07:58 51°14.52 2°54.87 4.2 46 13.5 101130 86
2003-05-05 07:08:02 51°14.53 2°54.86 4.2 52 13.5 101130 86
2003-05-05 07:08:08 51°14.55 2°54.84 3.7 61 13.5 101130 86
2003-05-05 07:08:14 51°14.57 2°54.83 4 51 13.5 101130 86
2003-05-05 07:08:18 51°14.58 2°54.82 3.8 50 13.5 101130 86
2003-05-05 07:08:22 51°14.59 2°54.81 3.7 55 13.5 101130 86
2003-05-05 07:08:28 51°14.61 2°54.79 4.4 321 13.5 101130 86
2003-05-05 07:08:34 51°14.63 2°54.77 4.3 316 13.5 101130 86
2003-05-05 07:08:38 51°14.64 2°54.76 3.6 48 13.5 101130 86
2003-05-05 07:08:42 51°14.65 2°54.75 3.8 49 13.5 101130 86
2003-05-05 07:08:48 51°14.67 2°54.74 4.1 43 13.5 101130 86
2003-05-05 07:08:54 51°14.68 2°54.72 3.9 45 13.5 101130 86
2003-05-05 07:08:58 51°14.7 2°54.71 4.3 54 13.5 101130 86
2003-05-05 07:09:02 51°14.71 2°54.7 4.7 54 13.5 101130 86
2003-05-05 07:09:08 51°14.73 2°54.68 4.5 47 13.5 101130 86
2003-05-05 07:09:14 51°14.74 2°54.67 4.7 55 13.5 101130 86
2003-05-05 07:09:18 51°14.75 2°54.66 4.4 53 13.5 101130 86
2003-05-05 07:09:22 51°14.77 2°54.65 4.6 55 13.5 101130 86
2003-05-05 07:09:28 51°14.78 2°54.63 5.2 58 13.5 101130 86
2003-05-05 07:09:34 51°14.8 2°54.61 5.2 58 13.5 101130 86
2003-05-05 07:09:38 51°14.81 2°54.6 5 58 13.5 101130 86
2003-05-05 07:09:42 51°14.83 2°54.59 4.3 56 13.5 101130 86
2003-05-05 07:09:48 51°14.84 2°54.58 4.4 57 13.5 101130 86
2003-05-05 07:09:54 51°14.86 2°54.56 4.5 54 13.5 101130 86
2003-05-05 07:09:58 51°14.87 2°54.55 3.9 50 13.5 101130 86
2003-05-05 07:10:02 51°14.89 2°54.54 3.8 62 13.5 101130 86
2003-05-05 07:10:08 51°14.9 2°54.53 4.5 53 13.5 101130 86
2003-05-05 07:10:14 51°14.92 2°54.51 4.4 55 13.5 101130 86
2003-05-05 07:10:18 51°14.93 2°54.5 3.6 56 13.5 101130 86
2003-05-05 07:10:22 51°14.94 2°54.49 3.4 47 13.5 101130 86
2003-05-05 07:10:28 51°14.96 2°54.47 3.7 320 13.5 101130 86
2003-05-05 07:10:34 51°14.98 2°54.46 4.4 48 13.5 101130 86
2003-05-05 07:10:38 51°14.99 2°54.45 3.9 57 13.5 101130 86
2003-05-05 07:10:42 51°15 2°54.44 3.9 57 13.5 101130 86
2003-05-05 07:10:48 51°15.02 2°54.42 4.1 55 13.5 101130 86
2003-05-05 07:10:54 51°15.04 2°54.41 4 56 13.5 101130 86
2003-05-05 07:10:58 51°15.05 2°54.4 3.8 48 13.5 101130 86
2003-05-05 07:11:02 51°15.06 2°54.39 3.8 48 13.5 101130 86
2003-05-05 07:11:08 51°15.08 2°54.37 3.8 51 13.5 101130 86
2003-05-05 07:11:14 51°15.1 2°54.36 3.9 47 13.5 101130 86
2003-05-05 07:11:18 51°15.11 2°54.35 4 45 13.5 101130 86
2003-05-05 07:11:22 51°15.12 2°54.33 4.2 42 13.5 101130 86
2003-05-05 07:11:28 51°15.14 2°54.32 4.1 39 13.5 101130 86
2003-05-05 07:11:34 51°15.16 2°54.3 3.8 40 13.5 101130 86
2003-05-05 07:11:38 51°15.17 2°54.29 3.6 44 13.5 101130 86
2003-05-05 07:11:42 51°15.18 2°54.28 3.8 46 13.5 101130 86
2003-05-05 07:11:48 51°15.2 2°54.27 3.6 51 13.5 101130 86
2003-05-05 07:11:54 51°15.22 2°54.25 3.6 54 13.5 101130 86
2003-05-05 07:11:58 51°15.23 2°54.24 3.8 51 13.5 101130 86
2003-05-05 07:12:02 51°15.25 2°54.23 3.7 316 13.5 101130 86
2003-05-05 07:12:08 51°15.27 2°54.22 4.2 45 13.5 101130 86
2003-05-05 07:12:14 51°15.28 2°54.2 4.6 44 13.5 101130 85
2003-05-05 07:12:18 51°15.3 2°54.19 5 52 13.5 101130 85
2003-05-05 07:12:22 51°15.31 2°54.18 4.7 49 13.5 101130 85
2003-05-05 07:12:28 51°15.33 2°54.16 4.5 134 13.5 101130 85
2003-05-05 07:12:34 51°15.35 2°54.15 4.3 46 13.5 101130 85
2003-05-05 07:12:38 51°15.36 2°54.14 4.4 49 13.5 101130 85
2003-05-05 07:12:42 51°15.37 2°54.12 3.9 48 13.5 101140 85
2003-05-05 07:12:48 51°15.39 2°54.11 4.5 52 13.5 101140 85
2003-05-05 07:12:54 51°15.41 2°54.09 4.6 57 13.5 101130 85
2003-05-05 07:12:58 51°15.42 2°54.08 5.1 57 13.5 101130 85
2003-05-05 07:13:02 51°15.43 2°54.07 5.1 58 13.5 101130 85
2003-05-05 07:13:08 51°15.45 2°54.05 4.5 42 13.5 101130 85
2003-05-05 07:13:14 51°15.47 2°54.03 4.3 318 13.5 101130 85
2003-05-05 07:13:18 51°15.48 2°54.02 4.7 45 13.5 101130 85
2003-05-05 07:13:22 51°15.5 2°54.01 4.2 47 13.5 101130 85
2003-05-05 07:13:28 51°15.52 2°54 4.4 47 13.5 101130 85
2003-05-05 07:13:34 51°15.53 2°53.98 4.3 47 13.5 101130 85
2003-05-05 07:13:38 51°15.55 2°53.97 4.6 50 13.5 101130 85
2003-05-05 07:13:42 51°15.56 2°53.96 4.4 51 13.4 101130 85
2003-05-05 07:13:48 51°15.58 2°53.94 4.3 49 13.4 101130 85
2003-05-05 07:13:54 51°15.6 2°53.92 4.4 133 13.4 101130 85
2003-05-05 07:13:58 51°15.61 2°53.91 4.8 54 13.4 101130 85
2003-05-05 07:14:02 51°15.62 2°53.9 4.7 57 13.4 101130 85
2003-05-05 07:14:08 51°15.64 2°53.89 4.1 50 13.4 101130 85
2003-05-05 07:14:14 51°15.66 2°53.87 4.1 52 13.4 101140 85
2003-05-05 07:14:18 51°15.67 2°53.86 4.4 55 13.4 101140 85
2003-05-05 07:14:22 51°15.68 2°53.85 4.6 53 13.4 101130 85
2003-05-05 07:14:28 51°15.7 2°53.83 4.9 48 13.4 101130 85
2003-05-05 07:14:34 51°15.72 2°53.81 4.9 52 13.4 101140 85
2003-05-05 07:14:38 51°15.73 2°53.8 4.7 58 13.4 101140 85
2003-05-05 07:14:42 51°15.74 2°53.79 4.7 60 13.4 101140 85
2003-05-05 07:14:48 51°15.76 2°53.77 4.4 54 13.4 101140 85
2003-05-05 07:14:54 51°15.78 2°53.76 4.6 53 13.4 101130 85
2003-05-05 07:14:58 51°15.79 2°53.75 4.7 58 13.4 101130 85
2003-05-05 07:15:02 51°15.81 2°53.74 4.8 56 13.4 101140 85
2003-05-05 07:15:08 51°15.83 2°53.72 4.5 54 13.4 101140 85
2003-05-05 07:15:14 51°15.84 2°53.7 4.4 56 13.4 101140 85
2003-05-05 07:15:18 51°15.86 2°53.69 4.3 51 13.4 101140 85
2003-05-05 07:15:22 51°15.87 2°53.68 4.8 49 13.4 101140 85
2003-05-05 07:15:28 51°15.89 2°53.66 4.6 53 13.4 101140 85
2003-05-05 07:15:34 51°15.91 2°53.65 4.8 55 13.4 101130 85
2003-05-05 07:15:38 51°15.92 2°53.64 5.1 56 13.4 101130 85
2003-05-05 07:15:42 51°15.93 2°53.62 5.3 50 13.4 101140 85
2003-05-05 07:15:48 51°15.95 2°53.61 4.6 131 13.4 101140 85
2003-05-05 07:15:54 51°15.97 2°53.59 4.8 49 13.4 101140 85
2003-05-05 07:15:58 51°15.98 2°53.58 5 54 13.4 101140 85
2003-05-05 07:16:02 51°16 2°53.57 2.6 57 13.4 101130 85
2003-05-05 07:16:08 51°16.02 2°53.55 4.8 49 13.4 101130 85
2003-05-05 07:16:14 51°16.04 2°53.53 5.3 49 13.4 101140 85
2003-05-05 07:16:18 51°16.05 2°53.52 5.2 51 13.4 101140 85
2003-05-05 07:16:22 51°16.06 2°53.51 5 52 13.4 101140 85
2003-05-05 07:16:28 51°16.08 2°53.49 5 47 13.4 101140 85
2003-05-05 07:16:34 51°16.1 2°53.48 4.8 50 13.3 101140 85
2003-05-05 07:16:38 51°16.11 2°53.47 5.5 55 13.3 101140 85
2003-05-05 07:16:42 51°16.13 2°53.45 5.4 50 13.3 101140 85
2003-05-05 07:16:48 51°16.15 2°53.44 5.5 50 13.3 101140 85
2003-05-05 07:16:54 51°16.17 2°53.42 5.2 52 13.3 101140 85
2003-05-05 07:16:58 51°16.18 2°53.41 5.3 47 13.3 101140 85
2003-05-05 07:17:02 51°16.19 2°53.4 5.1 52 13.3 101140 85
2003-05-05 07:17:08 51°16.21 2°53.38 5.1 59 13.3 101140 85
2003-05-05 07:17:14 51°16.23 2°53.36 5 58 13.3 101140 85
2003-05-05 07:17:18 51°16.24 2°53.35 4.8 55 13.3 101140 85
2003-05-05 07:17:22 51°16.26 2°53.34 4.6 53 13.3 101140 85
2003-05-05 07:17:28 51°16.28 2°53.32 4.5 50 13.3 101140 85
2003-05-05 07:17:34 51°16.29 2°53.31 4.6 52 13.3 101140 85
2003-05-05 07:17:38 51°16.31 2°53.3 4.2 49 13.3 101140 85
2003-05-05 07:17:42 51°16.32 2°53.29 4.8 51 13.3 101140 85
2003-05-05 07:17:48 51°16.34 2°53.27 4.4 51 13.3 101140 85
2003-05-05 07:17:54 51°16.36 2°53.25 4.9 52 13.3 101140 85
2003-05-05 07:17:58 51°16.37 2°53.24 4.8 46 13.3 101140 85
2003-05-05 07:18:02 51°16.39 2°53.23 4.5 317 13.3 101140 85
2003-05-05 07:18:08 51°16.41 2°53.21 4.8 59 13.3 101140 85
2003-05-05 07:18:14 51°16.43 2°53.2 4.5 56 13.3 101140 85
2003-05-05 07:18:18 51°16.44 2°53.18 4.3 51 13.3 101140 85
2003-05-05 07:18:22 51°16.45 2°53.17 4.1 52 13.3 101140 85
2003-05-05 07:18:28 51°16.47 2°53.16 4.1 53 13.3 101140 85
2003-05-05 07:18:34 51°16.49 2°53.14 3.9 60 13.3 101140 85
2003-05-05 07:18:38 51°16.51 2°53.13 4.6 58 13.3 101140 85
2003-05-05 07:18:42 51°16.52 2°53.12 4.4 52 13.3 101140 85
2003-05-05 07:18:48 51°16.54 2°53.1 4 56 13.3 101140 85
2003-05-05 07:18:54 51°16.56 2°53.08 3.9 54 13.3 101140 85
2003-05-05 07:18:58 51°16.57 2°53.07 4.2 58 13.3 101140 85
2003-05-05 07:19:02 51°16.58 2°53.06 4.4 62 13.3 101140 85
2003-05-05 07:19:08 51°16.6 2°53.04 4.7 53 13.3 101140 85
2003-05-05 07:19:14 51°16.62 2°53.03 4.2 53 13.2 101140 85
2003-05-05 07:19:18 51°16.64 2°53.01 4.2 51 13.2 101140 85
2003-05-05 07:19:22 51°16.65 2°53 4.7 58 13.2 101140 85
2003-05-05 07:19:28 51°16.67 2°52.99 4.9 65 13.2 101140 85
2003-05-05 07:19:34 51°16.69 2°52.97 4.7 70 13.3 101140 85
2003-05-05 07:19:38 51°16.7 2°52.96 4.4 39 13.3 101140 85
2003-05-05 07:19:42 51°16.72 2°52.95 4.3 47 13.2 101140 85
2003-05-05 07:19:48 51°16.74 2°52.93 4.6 130 13.2 101140 85
2003-05-05 07:19:54 51°16.76 2°52.91 5 46 13.3 101140 85
2003-05-05 07:19:58 51°16.77 2°52.9 5.1 35 13.3 101140 85
2003-05-05 07:20:02 51°16.78 2°52.89 4.8 39 13.2 101140 85
2003-05-05 07:20:08 51°16.8 2°52.88 4.8 41 13.2 101140 85
2003-05-05 07:20:14 51°16.82 2°52.86 4.7 39 13.2 101140 85
2003-05-05 07:20:18 51°16.83 2°52.85 5.1 42 13.2 101140 85
2003-05-05 07:20:22 51°16.85 2°52.84 5.2 133 13.2 101140 85
2003-05-05 07:20:28 51°16.87 2°52.82 5 46 13.2 101140 85
2003-05-05 07:20:34 51°16.89 2°52.81 5 45 13.2 101140 85
2003-05-05 07:20:38 51°16.9 2°52.79 5.2 133 13.2 101140 85
2003-05-05 07:20:42 51°16.91 2°52.78 5.1 129 13.2 101140 85
2003-05-05 07:20:48 51°16.93 2°52.77 5.2 47 13.2 101140 85
2003-05-05 07:20:54 51°16.95 2°52.75 5.2 132 13.2 101140 85
2003-05-05 07:20:58 51°16.96 2°52.74 5.1 321 13.2 101140 85
2003-05-05 07:21:02 51°16.98 2°52.73 5.1 43 13.2 101140 85
2003-05-05 07:21:08 51°17 2°52.71 4.7 47 13.2 101140 85
2003-05-05 07:21:14 51°17.02 2°52.69 4.8 45 13.2 101140 85
2003-05-05 07:21:18 51°17.03 2°52.68 4.6 50 13.2 101140 85
2003-05-05 07:21:22 51°17.04 2°52.67 4.6 317 13.2 101140 85
2003-05-05 07:21:28 51°17.06 2°52.65 4.8 46 13.2 101140 85
2003-05-05 07:21:34 51°17.08 2°52.64 4.5 52 13.2 101150 85
2003-05-05 07:21:38 51°17.1 2°52.63 4.4 54 13.2 101150 85
2003-05-05 07:21:42 51°17.11 2°52.62 4.8 47 13.2 101150 85
2003-05-05 07:21:48 51°17.13 2°52.6 5 52 13.2 101150 85
2003-05-05 07:21:54 51°17.15 2°52.58 5.5 57 13.2 101150 85
2003-05-05 07:21:58 51°17.16 2°52.57 4.9 53 13.2 101150 85
2003-05-05 07:22:02 51°17.18 2°52.56 5 47 13.2 101150 85
2003-05-05 07:22:08 51°17.2 2°52.54 4.9 48 13.2 101150 85
2003-05-05 07:22:14 51°17.21 2°52.53 4.8 51 13.2 101150 85
2003-05-05 07:22:18 51°17.23 2°52.52 5 45 13.2 101150 85
2003-05-05 07:22:22 51°17.24 2°52.5 5 50 13.2 101150 85
2003-05-05 07:22:28 51°17.26 2°52.49 4.8 48 13.2 101150 85
2003-05-05 07:22:34 51°17.28 2°52.47 5.2 48 13.2 101140 85
2003-05-05 07:22:38 51°17.29 2°52.46 5.2 48 13.2 101140 85
2003-05-05 07:22:42 51°17.31 2°52.45 5.2 49 13.2 101150 85
2003-05-05 07:22:48 51°17.33 2°52.43 2.6 53 13.2 101150 85
2003-05-05 07:22:54 51°17.35 2°52.41 5 51 13.1 101150 85
2003-05-05 07:22:58 51°17.36 2°52.4 4.4 52 13.1 101150 85
2003-05-05 07:23:02 51°17.37 2°52.39 4.4 53 13.1 101150 85
2003-05-05 07:23:08 51°17.4 2°52.38 3.9 52 13.1 101150 85
2003-05-05 07:23:14 51°17.42 2°52.37 3.6 58 13.1 101150 85
2003-05-05 07:23:18 51°17.43 2°52.37 3.4 58 13.1 101150 85
2003-05-05 07:23:22 51°17.45 2°52.36 3.2 52 13.1 101150 85
2003-05-05 07:23:28 51°17.47 2°52.35 3.5 52 13.1 101150 85
2003-05-05 07:23:34 51°17.49 2°52.35 2.9 62 13.1 101150 85
2003-05-05 07:23:38 51°17.5 2°52.34 3.2 58 13.1 101150 85
2003-05-05 07:23:42 51°17.52 2°52.34 3.2 46 13.1 101160 85
2003-05-05 07:23:48 51°17.54 2°52.33 3.2 51 13.1 101160 85
2003-05-05 07:23:54 51°17.56 2°52.32 3.1 46 13.1 101160 85
2003-05-05 07:23:58 51°17.58 2°52.32 3 50 13.1 101160 85
2003-05-05 07:24:02 51°17.59 2°52.31 3 53 13.1 101160 85
2003-05-05 07:24:08 51°17.61 2°52.3 3 45 13.1 101160 85
2003-05-05 07:24:14 51°17.63 2°52.3 3 53 13.1 101160 85
2003-05-05 07:24:18 51°17.65 2°52.29 2.6 131 13.1 101160 85
2003-05-05 07:24:22 51°17.66 2°52.29 2.7 52 13.1 101160 86
2003-05-05 07:24:28 51°17.69 2°52.28 1.8 50 13.1 101160 86
2003-05-05 07:24:34 51°17.71 2°52.28 1.9 47 13.1 101160 86
2003-05-05 07:24:38 51°17.72 2°52.28 1.5 43 13.1 101160 86
2003-05-05 07:24:42 51°17.74 2°52.28 1.4 36 13.1 101160 86
2003-05-05 07:24:48 51°17.76 2°52.28 1 29 13.1 101160 86
2003-05-05 07:24:54 51°17.78 2°52.28 1 37 13.1 101160 86
2003-05-05 07:24:58 51°17.79 2°52.28 1.1 36 13.1 101160 86
2003-05-05 07:25:02 51°17.81 2°52.28 1 29 13.1 101160 86
2003-05-05 07:25:08 51°17.83 2°52.28 1.1 35 13.1 101160 86
2003-05-05 07:25:14 51°17.85 2°52.28 0.8 45 13.1 101170 86
2003-05-05 07:25:18 51°17.87 2°52.28 1.2 31 13.1 101170 86
2003-05-05 07:25:22 51°17.88 2°52.28 1.1 30 13.1 101160 86
2003-05-05 07:25:28 51°17.9 2°52.29 0.8 16 13.1 101160 86
2003-05-05 07:25:34 51°17.92 2°52.29 0.8 354 13.1 101160 86
2003-05-05 07:25:38 51°17.94 2°52.3 1.4 316 13.1 101160 86
2003-05-05 07:25:42 51°17.95 2°52.3 1.4 309 13.1 101170 86
2003-05-05 07:25:48 51°17.97 2°52.31 1.6 304 13.1 101170 86
2003-05-05 07:25:54 51°17.99 2°52.33 1.6 295 13.1 101170 86
2003-05-05 07:25:58 51°18 2°52.33 1.9 304 13.1 101170 86
2003-05-05 07:26:02 51°18.02 2°52.34 1.9 285 13.1 101160 86
2003-05-05 07:26:08 51°18.04 2°52.36 2.6 290 13.1 101160 86
2003-05-05 07:26:14 51°18.05 2°52.37 2.5 283 13 101160 85
2003-05-05 07:26:18 51°18.07 2°52.39 3.2 282 13 101160 85
2003-05-05 07:26:22 51°18.08 2°52.4 2.8 282 13 101160 85
2003-05-05 07:26:28 51°18.1 2°52.42 3.4 278 13 101160 85
2003-05-05 07:26:34 51°18.11 2°52.43 3.8 277 13 101170 86
2003-05-05 07:26:38 51°18.13 2°52.45 3.8 278 13 101170 86
2003-05-05 07:26:42 51°18.14 2°52.46 3.7 277 13 101160 86
2003-05-05 07:26:48 51°18.16 2°52.48 3.2 282 13 101160 86
2003-05-05 07:26:54 51°18.17 2°52.5 3.1 279 13 101160 86
2003-05-05 07:26:58 51°18.18 2°52.51 3.2 284 13 101160 86
2003-05-05 07:27:02 51°18.2 2°52.52 3.3 284 13 101160 86
2003-05-05 07:27:08 51°18.21 2°52.54 3.5 281 13 101160 86
2003-05-05 07:27:14 51°18.23 2°52.56 3.3 278 13 101160 86
2003-05-05 07:27:18 51°18.24 2°52.57 3.5 280 13 101160 86
2003-05-05 07:27:22 51°18.25 2°52.58 3.1 276 12.9 101160 86
2003-05-05 07:27:28 51°18.27 2°52.6 3.4 265 12.9 101160 86
2003-05-05 07:27:34 51°18.29 2°52.62 3.5 271 12.9 101160 86
2003-05-05 07:27:38 51°18.3 2°52.63 4 275 12.9 101160 86
2003-05-05 07:27:42 51°18.31 2°52.65 2.6 277 12.9 101160 86
2003-05-05 07:27:48 51°18.33 2°52.67 4.1 279 12.9 101160 86
2003-05-05 07:27:54 51°18.34 2°52.69 4.4 277 12.9 101160 86
2003-05-05 07:27:58 51°18.35 2°52.71 4.7 276 12.9 101160 86
2003-05-05 07:28:02 51°18.36 2°52.72 4.7 270 12.9 101160 86
2003-05-05 07:28:08 51°18.38 2°52.75 4.3 281 12.9 101160 86
2003-05-05 07:28:14 51°18.39 2°52.77 4.3 279 12.9 101160 86
2003-05-05 07:28:18 51°18.4 2°52.78 4.4 283 12.9 101160 86
2003-05-05 07:28:22 51°18.41 2°52.8 4.7 281 12.9 101160 86
2003-05-05 07:28:28 51°18.43 2°52.83 5 281 12.9 101160 86
2003-05-05 07:28:34 51°18.44 2°52.85 4.5 283 12.8 101160 86
2003-05-05 07:28:38 51°18.45 2°52.87 5.1 283 12.8 101160 86
2003-05-05 07:28:42 51°18.45 2°52.89 5.7 280 12.8 101160 86
2003-05-05 07:28:48 51°18.46 2°52.92 5.2 286 12.8 101160 86
2003-05-05 07:28:54 51°18.47 2°52.95 5.1 281 12.8 101160 86
2003-05-05 07:28:58 51°18.48 2°52.97 5.4 288 12.8 101160 86
2003-05-05 07:29:02 51°18.49 2°52.99 5.5 283 12.8 101160 86
2003-05-05 07:29:08 51°18.5 2°53.01 5.5 288 12.8 101160 86
2003-05-05 07:29:14 51°18.51 2°53.04 5.2 286 12.8 101170 86
2003-05-05 07:29:18 51°18.51 2°53.06 5.5 283 12.8 101170 86
2003-05-05 07:29:22 51°18.52 2°53.08 5.2 285 12.8 101150 87
2003-05-05 07:29:28 51°18.53 2°53.11 5.3 289 12.8 101150 87
2003-05-05 07:29:34 51°18.54 2°53.14 4.9 287 12.8 101160 87
2003-05-05 07:29:38 51°18.55 2°53.16 4.9 283 12.8 101160 87
2003-05-05 07:29:42 51°18.55 2°53.18 5.4 285 12.8 101160 87
2003-05-05 07:29:48 51°18.56 2°53.21 5.1 288 12.8 101160 87
2003-05-05 07:29:54 51°18.57 2°53.23 5.3 286 12.8 101160 87
2003-05-05 07:29:58 51°18.58 2°53.25 4.9 289 12.8 101160 87
2003-05-05 07:30:02 51°18.59 2°53.27 5.3 286 12.8 101160 87
2003-05-05 07:30:08 51°18.6 2°53.3 5 290 12.8 101160 87
2003-05-05 07:30:14 51°18.61 2°53.33 5.3 289 12.8 101160 87
2003-05-05 07:30:18 51°18.62 2°53.35 5.2 286 12.8 101160 87
2003-05-05 07:30:22 51°18.62 2°53.37 5.3 284 12.8 101160 87
2003-05-05 07:30:28 51°18.63 2°53.4 5.2 286 12.8 101160 87
2003-05-05 07:30:34 51°18.64 2°53.43 5.3 289 12.8 101160 87
2003-05-05 07:30:38 51°18.65 2°53.44 5.7 286 12.8 101160 87
2003-05-05 07:30:42 51°18.66 2°53.46 5.5 287 12.8 101160 87
2003-05-05 07:30:48 51°18.67 2°53.49 5.2 286 12.8 101160 87
2003-05-05 07:30:54 51°18.68 2°53.52 4.7 288 12.8 101160 87
2003-05-05 07:30:58 51°18.69 2°53.54 4.9 286 12.8 101160 87
2003-05-05 07:31:02 51°18.69 2°53.56 5.3 288 12.8 101160 87
2003-05-05 07:31:08 51°18.7 2°53.59 5.3 290 12.8 101160 87
2003-05-05 07:31:14 51°18.71 2°53.62 5 289 12.8 101160 87
2003-05-05 07:31:18 51°18.72 2°53.64 5.3 292 12.8 101160 87
2003-05-05 07:31:22 51°18.73 2°53.66 5.4 291 12.8 101160 87
2003-05-05 07:31:28 51°18.74 2°53.68 5.9 296 12.8 101160 87
2003-05-05 07:31:34 51°18.75 2°53.71 5 288 12.8 101160 87
2003-05-05 07:31:38 51°18.75 2°53.73 5.5 295 12.8 101160 87
2003-05-05 07:31:42 51°18.76 2°53.75 5.2 287 12.7 101160 87
2003-05-05 07:31:48 51°18.77 2°53.78 5 291 12.7 101160 87
2003-05-05 07:31:54 51°18.78 2°53.81 5.1 291 12.7 101160 87
2003-05-05 07:31:58 51°18.79 2°53.83 5.1 286 12.7 101160 87
2003-05-05 07:32:02 51°18.79 2°53.85 4.9 291 12.7 101160 87
2003-05-05 07:32:08 51°18.81 2°53.88 5.7 285 12.7 101160 87
2003-05-05 07:32:14 51°18.82 2°53.91 5.4 285 12.7 101160 87
2003-05-05 07:32:18 51°18.82 2°53.92 5.7 293 12.7 101160 87
2003-05-05 07:32:22 51°18.83 2°53.94 5.6 296 12.7 101160 87
2003-05-05 07:32:28 51°18.84 2°53.97 5.3 294 12.7 101160 87
2003-05-05 07:32:34 51°18.85 2°54 5.8 288 12.7 101160 87
2003-05-05 07:32:38 51°18.86 2°54.02 5.7 288 12.7 101160 87
2003-05-05 07:32:42 51°18.86 2°54.04 5.5 287 12.7 101160 87
2003-05-05 07:32:48 51°18.87 2°54.07 4.9 286 12.7 101160 87
2003-05-05 07:32:54 51°18.88 2°54.1 5.4 286 12.7 101160 87
2003-05-05 07:32:58 51°18.89 2°54.12 5.9 289 12.7 101160 87
2003-05-05 07:33:02 51°18.9 2°54.14 5.6 289 12.7 101160 87
2003-05-05 07:33:08 51°18.91 2°54.17 5.6 291 12.7 101160 87
2003-05-05 07:33:14 51°18.92 2°54.2 5.1 289 12.7 101160 87
2003-05-05 07:33:18 51°18.92 2°54.22 5.4 289 12.7 101160 87
2003-05-05 07:33:22 51°18.93 2°54.24 5.7 293 12.7 101160 87
2003-05-05 07:33:28 51°18.94 2°54.27 5.9 294 12.7 101160 87
2003-05-05 07:33:34 51°18.95 2°54.3 5.7 285 12.7 101150 88
2003-05-05 07:33:38 51°18.96 2°54.32 5.3 286 12.7 101150 88
2003-05-05 07:33:42 51°18.96 2°54.34 4.9 287 12.7 101160 88
2003-05-05 07:33:48 51°18.97 2°54.37 5.6 281 12.7 101160 88
2003-05-05 07:33:54 51°18.98 2°54.4 6.2 288 12.7 101160 88
2003-05-05 07:33:58 51°18.99 2°54.42 5.8 281 12.7 101160 88
2003-05-05 07:34:02 51°19 2°54.44 5.1 286 12.7 101150 88
2003-05-05 07:34:08 51°19.01 2°54.47 4.8 282 12.7 101150 88
2003-05-05 07:34:14 51°19.02 2°54.5 4.8 281 12.7 101160 88
2003-05-05 07:34:18 51°19.02 2°54.52 4.8 282 12.7 101160 88
2003-05-05 07:34:22 51°19.03 2°54.54 4.5 282 12.7 101160 88
2003-05-05 07:34:28 51°19.04 2°54.57 4.6 289 12.7 101160 88
2003-05-05 07:34:34 51°19.05 2°54.6 4.5 291 12.7 101160 88
2003-05-05 07:34:38 51°19.06 2°54.62 3.6 288 12.7 101160 88
2003-05-05 07:34:42 51°19.07 2°54.64 3.8 288 12.7 101160 88
2003-05-05 07:34:48 51°19.08 2°54.67 3.9 293 12.7 101160 88
2003-05-05 07:34:54 51°19.09 2°54.7 4 287 12.7 101160 88
2003-05-05 07:34:58 51°19.09 2°54.72 4.2 290 12.7 101160 88
2003-05-05 07:35:02 51°19.1 2°54.74 4.5 296 12.7 101160 88
2003-05-05 07:35:08 51°19.11 2°54.77 4 297 12.7 101160 88
2003-05-05 07:35:14 51°19.12 2°54.8 4.2 298 12.8 101160 88
2003-05-05 07:35:18 51°19.13 2°54.82 4.2 303 12.8 101160 88
2003-05-05 07:35:22 51°19.13 2°54.84 4.2 300 12.8 101160 88
2003-05-05 07:35:28 51°19.14 2°54.87 4.4 302 12.8 101160 88
2003-05-05 07:35:34 51°19.15 2°54.91 4.1 301 12.8 101160 88
2003-05-05 07:35:38 51°19.16 2°54.92 4.4 307 12.8 101160 88
2003-05-05 07:35:42 51°19.17 2°54.94 4.6 310 12.8 101150 88
2003-05-05 07:35:48 51°19.18 2°54.98 4.6 307 12.8 101150 88
2003-05-05 07:35:54 51°19.19 2°55.01 4.8 306 12.8 101160 88
2003-05-05 07:35:58 51°19.2 2°55.03 5.2 294 12.8 101160 88
2003-05-05 07:36:02 51°19.2 2°55.05 5.2 297 12.8 101150 88
2003-05-05 07:36:08 51°19.21 2°55.08 5.2 294 12.8 101150 88
2003-05-05 07:36:14 51°19.22 2°55.11 5.2 290 12.7 101160 88
2003-05-05 07:36:18 51°19.23 2°55.13 5.1 295 12.7 101160 88
2003-05-05 07:36:22 51°19.24 2°55.15 5.7 297 12.8 101150 88
2003-05-05 07:36:28 51°19.25 2°55.18 5.7 297 12.8 101150 88
2003-05-05 07:36:34 51°19.26 2°55.21 5.5 292 12.8 101160 88
2003-05-05 07:36:38 51°19.26 2°55.23 5.7 285 12.8 101160 88
2003-05-05 07:36:42 51°19.27 2°55.25 6 298 12.7 101160 88
2003-05-05 07:36:48 51°19.28 2°55.28 5.6 287 12.7 101160 88
2003-05-05 07:36:54 51°19.29 2°55.31 5.4 292 12.8 101150 88
2003-05-05 07:36:58 51°19.3 2°55.33 5.5 291 12.8 101150 88
2003-05-05 07:37:02 51°19.3 2°55.35 5.5 293 12.8 101160 88
2003-05-05 07:37:08 51°19.32 2°55.38 5.5 294 12.8 101160 88
2003-05-05 07:37:14 51°19.33 2°55.41 5.4 289 12.8 101150 88
2003-05-05 07:37:18 51°19.33 2°55.43 5.3 292 12.8 101150 88
2003-05-05 07:37:22 51°19.34 2°55.45 6.1 294 12.8 101150 88
2003-05-05 07:37:28 51°19.35 2°55.48 5.8 294 12.8 101150 88
2003-05-05 07:37:34 51°19.36 2°55.51 5.4 287 12.8 101160 88
2003-05-05 07:37:38 51°19.37 2°55.53 5.5 291 12.8 101160 88
2003-05-05 07:37:42 51°19.37 2°55.55 5.5 290 12.8 101150 88
2003-05-05 07:37:48 51°19.38 2°55.57 5.5 296 12.8 101150 88
2003-05-05 07:37:54 51°19.39 2°55.6 5.4 292 12.8 101150 88
2003-05-05 07:37:58 51°19.4 2°55.62 6 296 12.8 101150 88
2003-05-05 07:38:04 51°19.41 2°55.66 5.8 298 12.8 101150 88
2003-05-05 07:38:08 51°19.42 2°55.68 5.9 293 12.8 101150 88
2003-05-05 07:38:14 51°19.43 2°55.71 6.2 299 12.8 101150 88
2003-05-05 07:38:18 51°19.43 2°55.73 5.5 287 12.8 101150 88
2003-05-05 07:38:22 51°19.44 2°55.75 5.9 298 12.8 101160 88
2003-05-05 07:38:28 51°19.45 2°55.78 5.6 286 12.8 101160 88
2003-05-05 07:38:34 51°19.46 2°55.81 6 294 12.8 101150 88
2003-05-05 07:38:38 51°19.47 2°55.83 6.1 296 12.8 101150 88
2003-05-05 07:38:42 51°19.48 2°55.85 5.2 291 12.8 101150 88
2003-05-05 07:38:48 51°19.49 2°55.88 5.6 295 12.8 101150 88
2003-05-05 07:38:54 51°19.5 2°55.91 5.5 294 12.8 101150 88
2003-05-05 07:38:58 51°19.5 2°55.93 5.6 298 12.8 101150 88
2003-05-05 07:39:02 51°19.51 2°55.95 5.9 298 12.8 101150 87
2003-05-05 07:39:08 51°19.52 2°55.98 5.9 299 12.8 101150 87
2003-05-05 07:39:14 51°19.53 2°56 5.5 305 12.8 101150 87
2003-05-05 07:39:18 51°19.54 2°56.02 5.9 295 12.8 101150 87
2003-05-05 07:39:22 51°19.54 2°56.04 6.5 298 12.8 101150 87
2003-05-05 07:39:28 51°19.55 2°56.08 6.8 303 12.8 101150 87
2003-05-05 07:39:34 51°19.56 2°56.11 6.6 301 12.8 101150 87
2003-05-05 07:39:38 51°19.56 2°56.13 6.7 305 12.8 101150 87
2003-05-05 07:39:42 51°19.57 2°56.15 7 300 12.9 101150 87
2003-05-05 07:39:48 51°19.57 2°56.18 7.1 297 12.9 101150 87
2003-05-05 07:39:54 51°19.58 2°56.21 6.6 298 12.8 101140 87
2003-05-05 07:39:58 51°19.58 2°56.24 6.8 306 12.8 101140 87
2003-05-05 07:40:02 51°19.59 2°56.26 7 298 12.8 101150 87
2003-05-05 07:40:08 51°19.59 2°56.29 6.6 299 12.8 101150 87
2003-05-05 07:40:14 51°19.6 2°56.32 6.6 300 12.8 101150 87
2003-05-05 07:40:18 51°19.6 2°56.34 6.5 301 12.8 101150 87
2003-05-05 07:40:22 51°19.61 2°56.36 6.6 295 12.8 101140 87
2003-05-05 07:40:28 51°19.62 2°56.4 7.3 304 12.8 101140 87
2003-05-05 07:40:34 51°19.62 2°56.43 6.4 304 12.8 101140 87
2003-05-05 07:40:38 51°19.63 2°56.45 6.7 294 12.8 101140 87
2003-05-05 07:40:42 51°19.63 2°56.47 7.1 305 12.8 101150 87
2003-05-05 07:40:48 51°19.64 2°56.5 6.2 297 12.8 101150 87
2003-05-05 07:40:54 51°19.64 2°56.54 7.1 299 12.8 101150 87
2003-05-05 07:40:58 51°19.65 2°56.56 6.8 299 12.8 101150 87
2003-05-05 07:41:02 51°19.65 2°56.58 6.1 300 12.9 101140 87
2003-05-05 07:41:08 51°19.66 2°56.61 6.3 302 12.9 101140 87
2003-05-05 07:41:14 51°19.67 2°56.64 6 293 12.8 101150 87
2003-05-05 07:41:18 51°19.67 2°56.66 5.8 300 12.8 101150 87
2003-05-05 07:41:22 51°19.68 2°56.68 5.8 295 12.9 101150 87
2003-05-05 07:41:28 51°19.68 2°56.71 6.3 289 12.9 101150 87
2003-05-05 07:41:34 51°19.69 2°56.74 6.3 288 12.9 101150 87
2003-05-05 07:41:38 51°19.7 2°56.77 5.3 288 12.9 101150 87
2003-05-05 07:41:42 51°19.7 2°56.79 6.4 301 12.9 101150 87
2003-05-05 07:41:48 51°19.71 2°56.82 5.8 301 12.9 101150 87
2003-05-05 07:41:54 51°19.72 2°56.85 5.9 304 12.8 101150 87
2003-05-05 07:41:58 51°19.72 2°56.87 5.8 296 12.8 101150 87
2003-05-05 07:42:02 51°19.73 2°56.89 5.6 303 12.9 101150 87
2003-05-05 07:42:08 51°19.74 2°56.92 6.5 303 12.9 101150 87
2003-05-05 07:42:14 51°19.75 2°56.95 6.6 305 12.9 101150 87
2003-05-05 07:42:18 51°19.75 2°56.97 6.2 303 12.9 101150 87
2003-05-05 07:42:22 51°19.76 2°56.99 6.4 303 12.9 101140 87
2003-05-05 07:42:28 51°19.76 2°57.03 6.5 302 12.9 101140 87
2003-05-05 07:42:34 51°19.77 2°57.06 6.4 300 12.9 101150 87
2003-05-05 07:42:38 51°19.77 2°57.08 6.4 299 12.9 101150 87
2003-05-05 07:42:42 51°19.78 2°57.1 6.1 299 12.9 101140 87
2003-05-05 07:42:48 51°19.79 2°57.13 6 303 12.9 101140 87
2003-05-05 07:42:54 51°19.79 2°57.16 6.4 301 12.9 101140 87
2003-05-05 07:42:58 51°19.8 2°57.18 5.9 302 12.9 101140 87
2003-05-05 07:43:02 51°19.8 2°57.2 6.2 303 12.9 101140 87
2003-05-05 07:43:08 51°19.81 2°57.23 6.3 304 12.9 101140 87
2003-05-05 07:43:14 51°19.82 2°57.26 6.2 303 12.9 101140 87
2003-05-05 07:43:18 51°19.82 2°57.29 6.1 301 12.9 101140 87
2003-05-05 07:43:22 51°19.83 2°57.31 6.1 301 12.9 101150 87
2003-05-05 07:43:28 51°19.84 2°57.34 6 298 12.9 101150 87
2003-05-05 07:43:34 51°19.84 2°57.37 6.2 300 12.9 101140 87
2003-05-05 07:43:38 51°19.85 2°57.39 6.3 304 12.9 101140 87
2003-05-05 07:43:42 51°19.86 2°57.41 6.2 301 12.9 101150 87
2003-05-05 07:43:48 51°19.86 2°57.44 6.5 300 12.9 101150 87
2003-05-05 07:43:54 51°19.87 2°57.47 6.7 300 12.9 101150 87
2003-05-05 07:43:58 51°19.87 2°57.49 6.7 306 12.9 101150 87
2003-05-05 07:44:02 51°19.88 2°57.51 6.5 296 12.9 101150 87
2003-05-05 07:44:08 51°19.89 2°57.54 6.4 301 12.9 101150 87
2003-05-05 07:44:14 51°19.89 2°57.58 6.2 300 12.9 101150 87
2003-05-05 07:44:18 51°19.9 2°57.6 6.3 296 12.9 101150 87
2003-05-05 07:44:22 51°19.9 2°57.62 6.2 299 12.9 101150 87
2003-05-05 07:44:28 51°19.91 2°57.65 6.1 301 12.9 101150 87
2003-05-05 07:44:34 51°19.92 2°57.68 6.3 302 12.9 101150 87
2003-05-05 07:44:38 51°19.92 2°57.7 6.4 300 12.9 101150 87
2003-05-05 07:44:42 51°19.93 2°57.72 6.4 302 12.9 101150 87
2003-05-05 07:44:48 51°19.93 2°57.75 6 298 12.9 101150 87
2003-05-05 07:44:54 51°19.94 2°57.78 6.3 300 12.9 101150 87
2003-05-05 07:44:58 51°19.95 2°57.8 6 297 12.9 101150 87
2003-05-05 07:45:02 51°19.95 2°57.82 6 305 12.9 101150 87
2003-05-05 07:45:08 51°19.96 2°57.85 5.8 301 12.9 101150 87
2003-05-05 07:45:14 51°19.97 2°57.89 6 302 12.9 101150 87
2003-05-05 07:45:18 51°19.97 2°57.91 5.8 302 12.9 101150 87
2003-05-05 07:45:22 51°19.98 2°57.93 5.9 303 12.9 101150 87
2003-05-05 07:45:28 51°19.98 2°57.96 5.5 301 12.9 101150 87
2003-05-05 07:45:34 51°19.99 2°57.99 5.6 300 12.9 101150 87
2003-05-05 07:45:38 51°20 2°58.01 5.8 297 12.9 101150 87
2003-05-05 07:45:42 51°20 2°58.03 6 298 12.9 101150 87
2003-05-05 07:45:48 51°20.01 2°58.06 6 296 12.9 101150 87
2003-05-05 07:45:54 51°20.02 2°58.09 6 299 12.8 101150 87
2003-05-05 07:45:58 51°20.02 2°58.11 6.6 298 12.8 101150 87
2003-05-05 07:46:02 51°20.03 2°58.13 6.4 302 12.8 101150 87
2003-05-05 07:46:08 51°20.04 2°58.16 6.1 302 12.8 101150 87
2003-05-05 07:46:14 51°20.04 2°58.19 6.7 299 12.9 101150 87
2003-05-05 07:46:18 51°20.05 2°58.21 6.3 297 12.9 101150 87
2003-05-05 07:46:22 51°20.05 2°58.23 6.5 299 12.8 101150 87
2003-05-05 07:46:28 51°20.06 2°58.27 6.2 298 12.8 101150 87
2003-05-05 07:46:34 51°20.07 2°58.3 6.5 296 12.8 101150 87
2003-05-05 07:46:38 51°20.07 2°58.32 6.7 297 12.8 101150 87
2003-05-05 07:46:44 51°20.08 2°58.35 6.4 300 12.8 101150 87
2003-05-05 07:46:48 51°20.08 2°58.37 6 298 12.8 101150 87
2003-05-05 07:46:54 51°20.09 2°58.4 6.3 299 12.9 101140 87
2003-05-05 07:46:58 51°20.1 2°58.42 6.1 302 12.9 101140 87
2003-05-05 07:47:02 51°20.1 2°58.44 6.3 306 12.9 101150 87
2003-05-05 07:47:08 51°20.11 2°58.47 6.3 300 12.9 101150 87
2003-05-05 07:47:14 51°20.12 2°58.5 6.2 303 12.8 101150 87
2003-05-05 07:47:18 51°20.12 2°58.52 6.2 301 12.8 101150 87
2003-05-05 07:47:22 51°20.13 2°58.54 6.5 296 12.9 101150 87
2003-05-05 07:47:28 51°20.13 2°58.57 6.6 298 12.9 101150 87
2003-05-05 07:47:34 51°20.14 2°58.6 6.2 300 12.8 101150 87
2003-05-05 07:47:38 51°20.15 2°58.62 6.5 303 12.8 101150 87
2003-05-05 07:47:42 51°20.15 2°58.64 6.4 301 12.9 101150 87
2003-05-05 07:47:48 51°20.16 2°58.67 6.2 299 12.9 101150 87
2003-05-05 07:47:54 51°20.17 2°58.7 6.4 304 12.9 101150 87
2003-05-05 07:47:58 51°20.17 2°58.72 6.3 302 12.9 101150 87
2003-05-05 07:48:02 51°20.18 2°58.74 6.3 297 12.8 101150 87
2003-05-05 07:48:08 51°20.18 2°58.77 6.1 298 12.8 101150 87
2003-05-05 07:48:14 51°20.19 2°58.8 6.2 298 12.9 101150 87
2003-05-05 07:48:18 51°20.2 2°58.82 6 296 12.9 101150 87
2003-05-05 07:48:22 51°20.2 2°58.84 6.1 296 12.9 101140 87
2003-05-05 07:48:28 51°20.21 2°58.87 6.1 298 12.9 101140 87
2003-05-05 07:48:34 51°20.22 2°58.9 6.2 298 12.9 101150 87
2003-05-05 07:48:38 51°20.22 2°58.92 6.4 299 12.9 101150 87
2003-05-05 07:48:42 51°20.23 2°58.94 6.2 297 12.9 101150 87
2003-05-05 07:48:48 51°20.24 2°58.98 6.5 302 12.9 101150 87
2003-05-05 07:48:54 51°20.24 2°59.01 6.4 298 12.9 101150 87
2003-05-05 07:48:58 51°20.25 2°59.03 6.4 298 12.9 101150 87
2003-05-05 07:49:02 51°20.25 2°59.05 6.2 307 12.9 101150 87
2003-05-05 07:49:08 51°20.26 2°59.08 6.4 297 12.9 101150 87
2003-05-05 07:49:14 51°20.27 2°59.11 5.9 303 12.9 101150 87
2003-05-05 07:49:18 51°20.27 2°59.13 5.7 302 12.9 101150 87
2003-05-05 07:49:22 51°20.28 2°59.15 6.5 299 12.9 101150 87
2003-05-05 07:49:28 51°20.29 2°59.18 6.3 303 12.9 101150 87
2003-05-05 07:49:34 51°20.29 2°59.21 6.5 300 12.9 101150 87
2003-05-05 07:49:38 51°20.3 2°59.23 6.3 302 12.9 101150 87
2003-05-05 07:49:42 51°20.3 2°59.25 6.2 301 12.9 101150 87
2003-05-05 07:49:48 51°20.31 2°59.28 5.9 303 12.9 101150 87
2003-05-05 07:49:54 51°20.32 2°59.31 6.1 301 12.9 101140 87
2003-05-05 07:49:58 51°20.32 2°59.33 6.3 300 12.9 101140 87
2003-05-05 07:50:02 51°20.33 2°59.35 6.2 307 12.9 101150 87
2003-05-05 07:50:08 51°20.34 2°59.38 6.3 297 12.9 101150 87
2003-05-05 07:50:14 51°20.35 2°59.41 6.1 300 12.9 101140 87
2003-05-05 07:50:18 51°20.35 2°59.43 6 300 12.9 101140 87
2003-05-05 07:50:22 51°20.36 2°59.45 6.2 299 12.9 101150 87
2003-05-05 07:50:28 51°20.36 2°59.48 6.4 295 12.9 101150 87
2003-05-05 07:50:34 51°20.37 2°59.51 6.3 302 12.9 101150 87
2003-05-05 07:50:38 51°20.37 2°59.53 6.4 303 12.9 101150 87
2003-05-05 07:50:42 51°20.38 2°59.55 6.2 305 12.9 101150 87
2003-05-05 07:50:48 51°20.38 2°59.58 6.3 301 12.9 101150 87
2003-05-05 07:50:54 51°20.39 2°59.61 6.7 304 12.9 101150 87
2003-05-05 07:50:58 51°20.4 2°59.63 6.1 301 12.9 101150 87
2003-05-05 07:51:02 51°20.4 2°59.65 6.4 302 12.9 101150 87
2003-05-05 07:51:08 51°20.41 2°59.68 6 307 12.9 101150 87
2003-05-05 07:51:14 51°20.42 2°59.71 6 304 12.9 101150 87
2003-05-05 07:51:18 51°20.42 2°59.73 6.2 304 12.9 101150 87
2003-05-05 07:51:24 51°20.43 2°59.76 6.5 303 12.9 101150 87
2003-05-05 07:51:28 51°20.43 2°59.78 6.3 302 12.9 101150 87
2003-05-05 07:51:34 51°20.44 2°59.81 6.5 300 12.9 101150 87
2003-05-05 07:51:38 51°20.45 2°59.83 6.5 303 12.9 101150 87
2003-05-05 07:51:42 51°20.45 2°59.85 6 295 12.9 101150 87
2003-05-05 07:51:48 51°20.46 2°59.88 6.1 303 12.9 101150 87
2003-05-05 07:51:54 51°20.46 2°59.91 6.1 302 12.9 101150 87
2003-05-05 07:51:58 51°20.47 2°59.93 6.4 299 12.9 101150 87
2003-05-05 07:52:02 51°20.47 2°59.95 6.2 295 12.9 101150 87
2003-05-05 07:52:08 51°20.48 2°59.98 6.3 296 12.9 101150 87
2003-05-05 07:52:14 51°20.49 3°0.01 6.1 295 12.9 101150 87
2003-05-05 07:52:18 51°20.49 3°0.03 6.2 294 12.9 101150 87
2003-05-05 07:52:22 51°20.5 3°0.05 6.1 297 12.9 101160 87
2003-05-05 07:52:28 51°20.51 3°0.08 6.8 295 12.9 101160 87
2003-05-05 07:52:34 51°20.51 3°0.11 6.3 298 12.9 101150 87
2003-05-05 07:52:38 51°20.52 3°0.13 5.9 294 12.9 101150 87
2003-05-05 07:52:42 51°20.52 3°0.15 6.1 304 12.9 101150 87
2003-05-05 07:52:48 51°20.53 3°0.18 5.5 297 12.9 101150 87
2003-05-05 07:52:54 51°20.54 3°0.21 6.1 298 12.9 101160 87
2003-05-05 07:52:58 51°20.54 3°0.23 6.3 299 12.9 101160 87
2003-05-05 07:53:02 51°20.55 3°0.25 6 304 12.9 101160 87
2003-05-05 07:53:08 51°20.56 3°0.28 6.2 301 12.9 101160 87
2003-05-05 07:53:14 51°20.56 3°0.31 5.9 302 12.9 101150 87
2003-05-05 07:53:18 51°20.57 3°0.33 6 301 12.9 101150 87
2003-05-05 07:53:22 51°20.57 3°0.35 5.5 301 12.9 101160 87
2003-05-05 07:53:28 51°20.58 3°0.38 6.2 305 12.9 101160 87
2003-05-05 07:53:34 51°20.59 3°0.41 5.6 298 12.9 101150 87
2003-05-05 07:53:38 51°20.59 3°0.43 6.1 309 12.9 101150 87
2003-05-05 07:53:42 51°20.6 3°0.45 6.2 304 12.9 101160 87
2003-05-05 07:53:48 51°20.61 3°0.49 6.3 311 12.9 101160 87
2003-05-05 07:53:54 51°20.61 3°0.52 6.2 299 12.9 101160 87
2003-05-05 07:53:58 51°20.62 3°0.54 6.3 302 12.9 101160 87
2003-05-05 07:54:02 51°20.62 3°0.56 5.9 299 12.9 101160 87
2003-05-05 07:54:08 51°20.63 3°0.58 6.1 304 12.9 101160 87
2003-05-05 07:54:14 51°20.64 3°0.61 6.2 295 13 101160 87
2003-05-05 07:54:18 51°20.65 3°0.63 5.9 298 13 101160 87
2003-05-05 07:54:22 51°20.65 3°0.65 6.3 301 13 101160 87
2003-05-05 07:54:28 51°20.66 3°0.68 6.3 301 13 101160 87
2003-05-05 07:54:34 51°20.67 3°0.71 6.2 303 12.9 101160 87
2003-05-05 07:54:38 51°20.67 3°0.73 5.7 303 12.9 101160 87
2003-05-05 07:54:42 51°20.67 3°0.75 6.4 304 13 101160 87
2003-05-05 07:54:48 51°20.68 3°0.79 6.2 302 13 101160 87
2003-05-05 07:54:54 51°20.69 3°0.82 6.5 302 13 101160 87
2003-05-05 07:54:58 51°20.69 3°0.84 6.5 306 13 101160 87
2003-05-05 07:55:02 51°20.69 3°0.86 6.1 297 13 101160 87
2003-05-05 07:55:08 51°20.7 3°0.89 6.3 305 13 101160 87
2003-05-05 07:55:14 51°20.71 3°0.92 6.5 299 13 101160 87
2003-05-05 07:55:18 51°20.71 3°0.94 6.4 306 13 101160 87
2003-05-05 07:55:24 51°20.72 3°0.97 6.2 301 13 101160 87
2003-05-05 07:55:28 51°20.72 3°0.99 6 308 13 101160 87
2003-05-05 07:55:34 51°20.73 3°1.02 6.2 308 13 101160 87
2003-05-05 07:55:38 51°20.73 3°1.04 6.1 299 13 101160 87
2003-05-05 07:55:42 51°20.74 3°1.06 6.5 306 13 101160 87
2003-05-05 07:55:48 51°20.74 3°1.09 6.2 306 13 101160 87
2003-05-05 07:55:54 51°20.75 3°1.12 6.4 302 13 101160 87
2003-05-05 07:55:58 51°20.75 3°1.14 6.3 303 13 101160 87
2003-05-05 07:56:02 51°20.76 3°1.16 6.2 299 13 101160 87
2003-05-05 07:56:08 51°20.76 3°1.19 6 303 13 101160 87
2003-05-05 07:56:14 51°20.77 3°1.22 6.1 303 13 101160 87
2003-05-05 07:56:18 51°20.77 3°1.24 6.2 306 13 101160 87
2003-05-05 07:56:22 51°20.78 3°1.26 5.8 297 13 101160 87
2003-05-05 07:56:28 51°20.79 3°1.29 5.7 300 13 101160 87
2003-05-05 07:56:34 51°20.79 3°1.32 5.7 303 13 101160 87
2003-05-05 07:56:38 51°20.8 3°1.34 5.9 305 13 101160 87
2003-05-05 07:56:42 51°20.8 3°1.36 5.8 304 13 101160 87
2003-05-05 07:56:48 51°20.81 3°1.39 5.7 304 13 101160 87
2003-05-05 07:56:54 51°20.82 3°1.42 5.5 304 13 101160 87
2003-05-05 07:56:58 51°20.82 3°1.44 6.1 299 13 101160 87
2003-05-05 07:57:02 51°20.83 3°1.46 5.7 303 13 101160 87
2003-05-05 07:57:08 51°20.83 3°1.49 5.7 305 13 101160 87
2003-05-05 07:57:14 51°20.84 3°1.53 5.7 305 13 101160 87
2003-05-05 07:57:18 51°20.84 3°1.55 5.8 309 13 101160 87
2003-05-05 07:57:22 51°20.85 3°1.57 5.9 306 13 101150 87
2003-05-05 07:57:28 51°20.86 3°1.6 5.7 306 13 101150 87
2003-05-05 07:57:34 51°20.86 3°1.63 5.8 306 13 101160 87
2003-05-05 07:57:38 51°20.87 3°1.65 5.8 300 13 101160 87
2003-05-05 07:57:42 51°20.87 3°1.67 5.5 311 13 101150 87
2003-05-05 07:57:48 51°20.88 3°1.7 6.1 307 13 101150 87
2003-05-05 07:57:54 51°20.89 3°1.73 5.6 307 13 101150 87
2003-05-05 07:57:58 51°20.89 3°1.75 5.6 309 13 101150 87
2003-05-05 07:58:02 51°20.89 3°1.77 5.7 308 13 101160 87
2003-05-05 07:58:08 51°20.9 3°1.8 5.7 308 13 101160 87
2003-05-05 07:58:14 51°20.91 3°1.83 6.2 309 13 101150 87
2003-05-05 07:58:18 51°20.91 3°1.85 5.8 312 13 101150 87
2003-05-05 07:58:22 51°20.92 3°1.87 6.1 309 13 101150 87
2003-05-05 07:58:28 51°20.92 3°1.9 5.9 307 13 101150 87
2003-05-05 07:58:34 51°20.93 3°1.93 6 305 13.1 101150 87
2003-05-05 07:58:38 51°20.93 3°1.95 6.1 302 13.1 101150 87
2003-05-05 07:58:42 51°20.94 3°1.97 6.1 306 13.1 101150 87
2003-05-05 07:58:48 51°20.94 3°2 5.8 304 13.1 101150 87
2003-05-05 07:58:54 51°20.95 3°2.03 5.8 300 13.1 101150 87
2003-05-05 07:58:58 51°20.95 3°2.05 5.7 300 13.1 101150 87
2003-05-05 07:59:02 51°20.96 3°2.07 5.7 303 13.1 101150 87
2003-05-05 07:59:08 51°20.97 3°2.1 5.7 299 13.1 101150 87
2003-05-05 07:59:14 51°20.97 3°2.13 5.8 296 13.1 101150 87
2003-05-05 07:59:18 51°20.98 3°2.15 5.6 301 13.1 101150 87
2003-05-05 07:59:22 51°20.98 3°2.17 5.9 299 13.1 101150 87
2003-05-05 07:59:28 51°20.99 3°2.2 6.2 300 13.1 101150 87
2003-05-05 07:59:34 51°21 3°2.23 5.9 305 13.1 101150 87
2003-05-05 07:59:38 51°21 3°2.25 6.2 301 13.1 101150 87
2003-05-05 07:59:42 51°21 3°2.27 6.2 297 13.1 101140 87
2003-05-05 07:59:48 51°21.01 3°2.3 5.9 299 13.1 101140 87
2003-05-05 07:59:54 51°21.02 3°2.33 6.2 302 13.1 101150 87
2003-05-05 07:59:58 51°21.02 3°2.35 6.1 298 13.1 101150 87
2003-05-05 08:00:04 51°21.03 3°2.38 6.1 303 13.1 101150 87
2003-05-05 08:00:08 51°21.03 3°2.4 6 299 13.1 101150 87
2003-05-05 08:00:14 51°21.04 3°2.43 5.8 298 13.1 101140 87
2003-05-05 08:00:18 51°21.04 3°2.45 5.8 300 13.1 101140 87
2003-05-05 08:00:22 51°21.05 3°2.47 6.1 300 13.1 101150 87
2003-05-05 08:00:28 51°21.06 3°2.5 6.1 301 13.1 101150 87
2003-05-05 08:00:34 51°21.06 3°2.53 6.3 303 13.1 101150 87
2003-05-05 08:00:38 51°21.07 3°2.55 6.2 300 13.1 101150 87
2003-05-05 08:00:42 51°21.07 3°2.57 5.9 299 13.1 101150 87
2003-05-05 08:00:48 51°21.08 3°2.6 6 298 13.1 101150 87
2003-05-05 08:00:54 51°21.08 3°2.63 6 299 13.1 101150 87
2003-05-05 08:00:58 51°21.09 3°2.65 5.5 304 13.1 101150 87
2003-05-05 08:01:02 51°21.09 3°2.67 5.6 307 13.1 101150 87
2003-05-05 08:01:08 51°21.1 3°2.7 5.9 308 13.1 101150 87
2003-05-05 08:01:14 51°21.11 3°2.73 5.9 305 13.1 101150 87
2003-05-05 08:01:18 51°21.11 3°2.75 6.3 304 13.1 101150 87
2003-05-05 08:01:22 51°21.12 3°2.77 6.4 309 13.1 101150 87
2003-05-05 08:01:28 51°21.12 3°2.8 6.3 305 13.1 101150 87
2003-05-05 08:01:34 51°21.13 3°2.83 5.7 302 13.1 101140 87
2003-05-05 08:01:38 51°21.13 3°2.85 6.1 304 13.1 101140 87
2003-05-05 08:01:42 51°21.14 3°2.87 6.1 299 13.1 101140 87
2003-05-05 08:01:48 51°21.14 3°2.9 5.9 302 13.1 101140 87
2003-05-05 08:01:54 51°21.15 3°2.93 5.6 301 13.1 101140 87
2003-05-05 08:01:58 51°21.16 3°2.95 5.7 295 13.1 101140 87
2003-05-05 08:02:02 51°21.16 3°2.97 5.8 298 13.1 101140 87
2003-05-05 08:02:08 51°21.17 3°3 6.1 300 13.1 101140 87
2003-05-05 08:02:14 51°21.18 3°3.03 6.2 299 13.1 101140 87
2003-05-05 08:02:18 51°21.18 3°3.05 6.2 295 13.1 101140 87
2003-05-05 08:02:22 51°21.18 3°3.07 6.5 298 13.1 101140 87
2003-05-05 08:02:28 51°21.19 3°3.1 6.3 294 13.1 101140 87
2003-05-05 08:02:34 51°21.2 3°3.13 6.4 296 13.1 101140 87
2003-05-05 08:02:38 51°21.2 3°3.15 6.1 300 13.1 101140 87
2003-05-05 08:02:42 51°21.2 3°3.17 6 294 13.1 101140 87
2003-05-05 08:02:48 51°21.21 3°3.2 5.8 297 13.1 101140 87
2003-05-05 08:02:54 51°21.22 3°3.23 6 297 13.1 101140 87
2003-05-05 08:02:58 51°21.22 3°3.25 5.9 295 13.1 101140 87
2003-05-05 08:03:02 51°21.23 3°3.26 6 294 13.1 101150 87
2003-05-05 08:03:08 51°21.23 3°3.29 6.3 294 13.1 101150 87
2003-05-05 08:03:14 51°21.24 3°3.32 6 299 13.1 101140 87
2003-05-05 08:03:18 51°21.24 3°3.34 6.2 300 13.1 101140 87
2003-05-05 08:03:22 51°21.25 3°3.36 6.1 296 13.1 101140 87
2003-05-05 08:03:28 51°21.25 3°3.39 5.9 295 13.1 101140 87
2003-05-05 08:03:34 51°21.26 3°3.42 6.5 299 13.1 101140 87
2003-05-05 08:03:38 51°21.26 3°3.44 6 294 13.1 101140 87
2003-05-05 08:03:42 51°21.27 3°3.46 5.9 288 13.1 101140 87
2003-05-05 08:03:48 51°21.27 3°3.49 5.8 295 13.1 101140 87
2003-05-05 08:03:54 51°21.28 3°3.52 6 299 13.1 101140 87
2003-05-05 08:03:58 51°21.29 3°3.54 5.4 301 13.1 101140 87
2003-05-05 08:04:02 51°21.29 3°3.56 5 292 13.1 101140 87
2003-05-05 08:04:08 51°21.3 3°3.58 5.8 304 13.1 101140 87
2003-05-05 08:04:14 51°21.3 3°3.61 5.3 303 13.1 101140 87
2003-05-05 08:04:18 51°21.31 3°3.63 5.4 295 13.1 101140 87
2003-05-05 08:04:22 51°21.31 3°3.65 5.4 304 13.1 101140 87
2003-05-05 08:04:28 51°21.32 3°3.68 5.7 297 13.1 101140 87
2003-05-05 08:04:34 51°21.32 3°3.7 5.6 297 13.1 101150 87
2003-05-05 08:04:38 51°21.33 3°3.72 5.5 297 13.1 101150 87
2003-05-05 08:04:44 51°21.33 3°3.75 5.3 300 13.1 101140 87
2003-05-05 08:04:48 51°21.34 3°3.77 5.3 294 13.1 101140 87
2003-05-05 08:04:54 51°21.34 3°3.79 5.3 296 13.1 101140 87
2003-05-05 08:04:58 51°21.35 3°3.81 4.8 292 13.1 101140 87
2003-05-05 08:05:02 51°21.35 3°3.82 4.4 293 13.1 101140 87
2003-05-05 08:05:08 51°21.35 3°3.85 4.4 293 13.1 101140 87
2003-05-05 08:05:14 51°21.36 3°3.87 4.6 286 13.1 101140 87
2003-05-05 08:05:18 51°21.36 3°3.88 4.6 294 13.1 101140 87
2003-05-05 08:05:22 51°21.37 3°3.9 4.4 290 13.1 101140 87
2003-05-05 08:05:28 51°21.37 3°3.92 4.7 292 13.1 101140 87
2003-05-05 08:05:34 51°21.38 3°3.94 4.7 287 13.1 101140 87
2003-05-05 08:05:38 51°21.38 3°3.96 4.7 285 13.1 101140 87
2003-05-05 08:05:42 51°21.38 3°3.97 4.5 283 13.1 101140 87
2003-05-05 08:05:48 51°21.39 3°3.99 4.5 282 13.1 101140 87
2003-05-05 08:05:54 51°21.39 3°4.01 4.5 276 13.1 101140 87
2003-05-05 08:05:58 51°21.39 3°4.02 4.5 288 13.1 101140 87
2003-05-05 08:06:02 51°21.4 3°4.04 4 290 13.1 101150 87
2003-05-05 08:06:08 51°21.4 3°4.06 4.4 290 13.1 101150 87
2003-05-05 08:06:14 51°21.41 3°4.08 4.4 287 13.1 101150 87
2003-05-05 08:06:18 51°21.41 3°4.09 4.4 290 13.1 101150 87
2003-05-05 08:06:22 51°21.41 3°4.11 3.7 289 13.1 101150 87
2003-05-05 08:06:28 51°21.42 3°4.13 4.5 283 13.1 101150 87
2003-05-05 08:06:34 51°21.42 3°4.15 5 276 13.1 101150 87
2003-05-05 08:06:38 51°21.42 3°4.16 4.7 281 13.1 101150 87
2003-05-05 08:06:42 51°21.43 3°4.17 4.9 276 13.1 101150 87
2003-05-05 08:06:48 51°21.43 3°4.19 5.1 272 13.1 101150 87
2003-05-05 08:06:54 51°21.44 3°4.21 4.8 276 13.1 101150 87
2003-05-05 08:06:58 51°21.44 3°4.22 4.6 273 13.1 101150 87
2003-05-05 08:07:02 51°21.44 3°4.24 5.3 276 13.1 101150 87
2003-05-05 08:07:08 51°21.45 3°4.25 5 274 13.1 101150 87
2003-05-05 08:07:14 51°21.45 3°4.27 5 270 13.1 101150 87
2003-05-05 08:07:18 51°21.45 3°4.29 5.2 274 13.1 101150 87
2003-05-05 08:07:22 51°21.46 3°4.3 5.1 269 13.1 101150 87
2003-05-05 08:07:28 51°21.46 3°4.32 5.2 269 13.1 101150 87
2003-05-05 08:07:34 51°21.46 3°4.34 5.1 274 13.1 101150 87
2003-05-05 08:07:38 51°21.47 3°4.35 5.2 267 13.1 101150 87
2003-05-05 08:07:42 51°21.47 3°4.36 5.1 273 13.1 101150 87
2003-05-05 08:07:48 51°21.47 3°4.38 5.1 271 13.1 101150 87
2003-05-05 08:07:54 51°21.48 3°4.4 4.9 272 13.1 101150 87
2003-05-05 08:07:58 51°21.48 3°4.41 4.7 258 13.1 101150 87
2003-05-05 08:08:02 51°21.48 3°4.42 4.5 271 13.1 101150 87
2003-05-05 08:08:08 51°21.49 3°4.44 5 273 13.1 101150 87
2003-05-05 08:08:14 51°21.49 3°4.46 4.9 270 13.1 101160 87
2003-05-05 08:08:18 51°21.49 3°4.47 4.6 269 13.1 101160 87
2003-05-05 08:08:22 51°21.5 3°4.48 4.5 274 13.1 101150 87
2003-05-05 08:08:28 51°21.5 3°4.5 4.7 264 13.1 101150 87
2003-05-05 08:08:34 51°21.5 3°4.52 4.5 268 13.1 101150 87
2003-05-05 08:08:38 51°21.51 3°4.53 4.4 264 13.1 101150 87
2003-05-05 08:08:44 51°21.51 3°4.54 4.2 269 13.1 101160 87
2003-05-05 08:08:48 51°21.51 3°4.55 4.3 266 13.1 101160 87
2003-05-05 08:08:54 51°21.52 3°4.57 4.2 269 13.1 101160 87
2003-05-05 08:08:58 51°21.52 3°4.58 4.6 265 13.1 101160 87
2003-05-05 08:09:02 51°21.52 3°4.59 4.4 264 13.1 101150 87
2003-05-05 08:09:08 51°21.53 3°4.61 4 265 13.1 101150 87
2003-05-05 08:09:14 51°21.53 3°4.62 4.4 261 13.1 101160 87
2003-05-05 08:09:18 51°21.53 3°4.63 4 271 13.1 101160 87
2003-05-05 08:09:22 51°21.53 3°4.65 3.9 266 13.1 101160 87
2003-05-05 08:09:28 51°21.54 3°4.66 4.5 269 13.1 101160 87
2003-05-05 08:09:34 51°21.54 3°4.68 4.2 266 13.1 101160 87
2003-05-05 08:09:38 51°21.55 3°4.69 4.2 263 13.1 101160 87
2003-05-05 08:09:42 51°21.55 3°4.7 4.5 269 13.1 101150 87
2003-05-05 08:09:48 51°21.55 3°4.71 4.1 271 13.1 101150 87
2003-05-05 08:09:54 51°21.56 3°4.73 4.6 274 13.1 101160 87
2003-05-05 08:09:58 51°21.56 3°4.74 4.4 269 13.1 101160 87
2003-05-05 08:10:02 51°21.56 3°4.75 4.3 277 13.1 101150 87
2003-05-05 08:10:08 51°21.57 3°4.77 5 275 13.1 101150 87
2003-05-05 08:10:14 51°21.57 3°4.79 4.3 276 13.1 101160 87
2003-05-05 08:10:18 51°21.57 3°4.8 4.5 280 13.1 101160 87
2003-05-05 08:10:22 51°21.58 3°4.82 4.7 275 13.1 101160 87
2003-05-05 08:10:28 51°21.58 3°4.83 5.4 275 13.1 101160 87
2003-05-05 08:10:34 51°21.59 3°4.85 5.6 270 13.1 101160 87
2003-05-05 08:10:38 51°21.59 3°4.87 5.4 278 13.1 101160 87
2003-05-05 08:10:42 51°21.59 3°4.88 5.5 273 13.1 101150 87
2003-05-05 08:10:48 51°21.6 3°4.9 5.3 277 13.1 101150 87
2003-05-05 08:10:54 51°21.6 3°4.92 5.6 274 13.1 101150 87
2003-05-05 08:10:58 51°21.6 3°4.94 4.7 280 13.1 101150 87
2003-05-05 08:11:02 51°21.61 3°4.95 5.5 272 13.1 101150 87
2003-05-05 08:11:08 51°21.61 3°4.98 5.1 279 13.1 101150 87
2003-05-05 08:11:14 51°21.62 3°5 5.1 275 13.1 101150 88
2003-05-05 08:11:18 51°21.62 3°5.01 5.1 274 13.1 101150 88
2003-05-05 08:11:22 51°21.63 3°5.03 4.9 276 13.1 101150 87
2003-05-05 08:11:28 51°21.63 3°5.05 4.2 278 13.1 101150 87
2003-05-05 08:11:34 51°21.64 3°5.07 4.2 281 13.1 101150 87
2003-05-05 08:11:38 51°21.64 3°5.09 3.8 282 13.1 101150 87
2003-05-05 08:11:42 51°21.65 3°5.1 4 279 13.1 101150 87
2003-05-05 08:11:48 51°21.66 3°5.12 4.7 278 13.1 101150 87
2003-05-05 08:11:54 51°21.66 3°5.14 4.6 279 13.1 101150 88
2003-05-05 08:11:58 51°21.67 3°5.16 3.6 281 13.1 101150 88
2003-05-05 08:12:02 51°21.68 3°5.17 4.1 278 13.1 101150 88
2003-05-05 08:12:08 51°21.68 3°5.2 3.9 280 13.1 101150 88
2003-05-05 08:12:14 51°21.69 3°5.22 4 279 13.1 101150 87
2003-05-05 08:12:18 51°21.69 3°5.23 3.5 281 13.1 101150 87
2003-05-05 08:12:22 51°21.7 3°5.25 3.8 283 13.1 101150 87
2003-05-05 08:12:28 51°21.71 3°5.27 4 276 13.1 101150 87
2003-05-05 08:12:34 51°21.72 3°5.29 4.3 275 13.1 101150 87
2003-05-05 08:12:38 51°21.72 3°5.31 3.8 281 13.1 101150 87
2003-05-05 08:12:44 51°21.73 3°5.33 4.2 279 13.1 101150 87
2003-05-05 08:12:48 51°21.73 3°5.34 4.2 281 13.1 101150 87
2003-05-05 08:12:54 51°21.74 3°5.37 4.2 282 13.1 101150 87
2003-05-05 08:12:58 51°21.74 3°5.38 4 290 13.1 101150 87
2003-05-05 08:13:02 51°21.75 3°5.4 4.1 286 13.1 101150 87
2003-05-05 08:13:08 51°21.76 3°5.42 4 296 13.1 101150 87
2003-05-05 08:13:14 51°21.76 3°5.44 3.5 286 13.1 101150 87
2003-05-05 08:13:18 51°21.77 3°5.46 3.9 289 13.1 101150 87
2003-05-05 08:13:24 51°21.78 3°5.48 3.7 284 13.1 101150 87
2003-05-05 08:13:28 51°21.78 3°5.49 4 287 13.1 101150 87
2003-05-05 08:13:34 51°21.79 3°5.52 4 284 13.1 101150 87
2003-05-05 08:13:38 51°21.79 3°5.53 3.7 281 13.1 101150 87
2003-05-05 08:13:42 51°21.8 3°5.55 4.3 284 13.1 101150 87
2003-05-05 08:13:48 51°21.8 3°5.57 3.5 283 13.1 101150 87
2003-05-05 08:13:54 51°21.81 3°5.59 3.4 284 13.1 101150 87
2003-05-05 08:13:58 51°21.82 3°5.61 3.9 292 13.1 101150 87
2003-05-05 08:14:02 51°21.82 3°5.62 3.9 284 13.1 101150 87
2003-05-05 08:14:08 51°21.83 3°5.65 3.7 288 13.1 101150 87
2003-05-05 08:14:14 51°21.84 3°5.67 3.5 291 13.1 101150 87
2003-05-05 08:14:18 51°21.84 3°5.68 3.8 291 13.1 101150 87
2003-05-05 08:14:22 51°21.85 3°5.7 3.8 293 13.1 101150 87
2003-05-05 08:14:28 51°21.85 3°5.72 4.1 291 13.1 101150 87
2003-05-05 08:14:34 51°21.86 3°5.75 4.4 298 13.1 101150 87
2003-05-05 08:14:38 51°21.86 3°5.76 4.6 300 13.1 101150 87
2003-05-05 08:14:42 51°21.87 3°5.78 4.3 304 13.1 101150 87
2003-05-05 08:14:48 51°21.88 3°5.8 4.5 305 13.1 101150 87
2003-05-05 08:14:54 51°21.88 3°5.83 5 298 13.1 101150 87
2003-05-05 08:14:58 51°21.89 3°5.85 4.8 298 13.1 101150 87
2003-05-05 08:15:02 51°21.89 3°5.87 5 300 13.1 101150 87
2003-05-05 08:15:08 51°21.9 3°5.89 4.3 297 13.1 101150 87
2003-05-05 08:15:14 51°21.9 3°5.92 4.7 295 13.1 101150 87
2003-05-05 08:15:18 51°21.91 3°5.94 4.4 293 13.1 101150 87
2003-05-05 08:15:22 51°21.91 3°5.96 4.5 297 13.2 101150 87
2003-05-05 08:15:28 51°21.92 3°5.99 4.6 300 13.2 101150 87
2003-05-05 08:15:34 51°21.92 3°6.01 4.9 296 13.1 101150 87
2003-05-05 08:15:38 51°21.93 3°6.03 4.6 294 13.1 101150 87
2003-05-05 08:15:42 51°21.93 3°6.05 5 288 13.1 101150 87
2003-05-05 08:15:48 51°21.94 3°6.08 4.9 294 13.1 101150 87
2003-05-05 08:15:54 51°21.94 3°6.11 5.1 293 13.1 101150 87
2003-05-05 08:15:58 51°21.95 3°6.12 4.5 297 13.1 101150 87
2003-05-05 08:16:02 51°21.95 3°6.14 4.7 296 13.1 101150 87
2003-05-05 08:16:08 51°21.96 3°6.17 4.7 288 13.1 101150 87
2003-05-05 08:16:14 51°21.97 3°6.2 4.9 293 13.1 101150 87
2003-05-05 08:16:18 51°21.97 3°6.22 5.2 294 13.1 101150 87
2003-05-05 08:16:22 51°21.97 3°6.23 4.8 288 13.1 101160 87
2003-05-05 08:16:28 51°21.98 3°6.26 4.9 296 13.1 101160 87
2003-05-05 08:16:34 51°21.99 3°6.29 4.6 291 13.1 101150 87
2003-05-05 08:16:38 51°21.99 3°6.31 4.3 291 13.1 101150 87
2003-05-05 08:16:44 51°22 3°6.34 5.2 283 13.1 101160 87
2003-05-05 08:16:48 51°22 3°6.35 4.5 293 13.1 101160 87
2003-05-05 08:16:54 51°22.01 3°6.38 4.4 290 13.1 101160 87
2003-05-05 08:16:58 51°22.01 3°6.4 5 293 13.1 101160 87
2003-05-05 08:17:02 51°22.02 3°6.42 5 294 13.1 101150 87
2003-05-05 08:17:08 51°22.02 3°6.45 4.9 292 13.1 101150 87
2003-05-05 08:17:14 51°22.03 3°6.48 4.7 292 13.1 101160 87